GFSNW_sfc_30mbdewp_021.txt.gz
Dewpoint
46 50 51 52 51 51 49 45 38 52 55 37 40 35 30 24 29 34 26 25 17 17 18 19 16 14 18 28 28 22 23 20 20 22 27 28 26 23 23 19 15 20 24 13
44 48 50 52 51 50 46 43 43 55 49 37 42 34 28 26 29 29 29 22 22 21 19 18 19 20 35 34 31 24 30 19 20 22 26 27 22 21 22 21 26 16 20 13
43 47 50 51 51 49 47 40 38 48 48 39 37 33 27 27 31 29 27 22 27 27 26 28 27 29 33 35 32 32 31 23 21 19 21 22 24 22 22 22 20 17 15 12
45 47 49 51 50 49 47 39 34 39 39 38 38 31 28 24 27 31 31 30 26 25 24 28 29 31 33 35 36 32 32 26 24 24 25 23 21 18 21 20 19 18 16 10
45 47 48 51 50 49 47 37 33 36 38 37 34 30 27 22 26 29 30 27 25 25 26 28 25 31 31 31 35 33 32 27 29 29 26 25 22 20 17 16 17 15 13 13
45 45 46 50 50 49 44 46 40 37 40 37 32 32 27 24 29 37 32 28 29 28 34 38 37 36 33 32 34 34 33 33 26 18 24 24 22 25 21 17 17 18 17 17
45 46 45 50 49 49 43 45 41 38 38 37 32 28 27 24 30 32 34 34 32 40 39 38 36 34 33 32 34 35 36 31 30 22 23 13 10 19 16 17 16 15 16 16
45 45 45 49 49 49 48 48 44 36 39 34 29 25 25 26 35 36 37 40 40 39 37 35 33 34 35 34 30 28 29 29 26 28 16 15 14 11 17 18 16 17 20 17
46 45 49 49 49 49 51 54 50 38 38 34 28 25 24 36 39 41 41 41 41 39 40 38 29 25 26 30 33 31 29 33 26 25 24 19 22 23 28 26 15 21 21 21
47 47 49 49 49 49 51 53 55 36 28 30 30 27 25 31 37 38 41 41 40 39 40 38 33 28 28 24 26 32 32 33 29 27 28 25 21 22 29 17 23 28 28 26
47 48 49 49 49 49 50 54 55 39 32 38 40 33 31 30 33 41 41 39 40 39 37 39 36 36 31 29 26 31 28 30 29 31 30 19 21 27 23 32 28 28 30 30
48 48 48 49 49 49 50 53 53 52 42 47 49 50 49 44 38 38 41 35 39 39 36 41 43 36 35 34 27 29 28 29 29 26 25 27 26 25 27 30 31 31 31 31
48 48 48 48 49 49 50 53 53 49 49 47 45 45 49 49 50 51 39 42 40 41 45 45 45 34 40 33 33 32 30 31 28 28 22 23 25 27 29 30 31 32 33 34
48 48 48 48 49 49 50 52 54 48 49 45 46 49 48 49 49 48 49 45 45 43 43 46 39 38 38 39 35 32 31 30 28 29 26 25 27 30 33 35 36 37 37 38
48 48 48 49 49 49 52 52 52 54 44 45 46 47 47 47 46 45 45 45 42 41 43 35 41 40 39 40 37 34 32 27 32 29 33 35 32 36 40 39 40 40 40 40
48 48 48 49 49 49 49 47 50 49 52 48 44 47 46 47 45 44 43 44 42 41 44 44 39 40 39 38 32 35 36 37 37 36 39 39 40 37 36 35 34 34 33 32
48 48 48 48 49 49 46 41 50 49 51 47 44 44 46 47 46 47 46 47 46 43 44 44 43 40 40 40 34 38 36 36 38 38 40 39 36 35 35 36 36 36 36 35
48 48 48 49 49 48 49 47 47 49 47 46 43 42 45 47 46 45 46 47 46 44 42 42 42 40 42 38 37 36 35 36 37 35 36 35 34 35 36 36 35 33 33 33
48 49 50 50 51 47 50 45 48 50 47 42 44 41 40 44 42 44 44 45 42 42 40 41 42 38 37 36 35 35 35 36 36 35 34 35 35 34 34 33 32 31 30 31
48 46 44 44 49 46 47 44 47 45 44 42 38 42 40 42 42 39 41 42 39 37 39 41 39 37 33 34 34 35 35 36 36 35 34 34 33 33 32 32 30 29 31 31
48 46 46 47 46 46 44 39 39 39 37 39 39 40 39 42 40 37 40 38 38 35 37 36 35 34 32 34 35 36 36 36 36 36 35 33 32 30 29 30 31 28 27 27
48 48 47 46 44 41 35 35 38 38 35 37 37 38 39 40 42 38 39 35 35 32 37 35 31 32 33 34 35 35 34 34 33 33 31 31 30 29 27 27 28 30 30 30
46 42 37 39 38 31 30 28 32 33 36 36 38 36 39 39 40 38 36 33 34 36 32 30 32 32 34 34 34 32 32 31 30 28 26 25 27 30 31 30 31 32 30 30
38 37 32 34 33 31 31 32 33 33 34 38 39 36 38 38 36 36 34 32 35 30 28 30 30 32 34 34 32 31 29 27 25 28 29 30 31 30 31 31 31 30 29 28
34 34 29 28 30 31 32 33 33 34 36 37 39 38 38 35 34 35 33 30 29 31 31 31 32 33 34 34 30 26 28 30 30 30 30 31 32 31 29 28 27 27 26 26
33 32 30 32 31 31 32 32 32 34 35 37 38 34 34 32 33 32 31 31 29 31 32 32 33 32 34 34 28 28 30 30 30 30 30 31 30 29 28 25 23 25 25 24
32 30 32 32 31 30 30 32 32 35 34 31 33 31 29 32 31 30 32 29 31 32 32 33 33 32 33 32 33 33 31 30 30 30 29 28 27 26 22 18 17 18 19 21

GFSNW_sfc_30mbdewp_024.txt.gz
Dewpoint
46 46 48 50 52 52 50 44 37 49 54 38 36 39 34 32 30 24 26 21 14 15 17 16 14 12 16 22 21 23 20 20 18 19 22 25 23 23 19 23 19 23 26 20
45 46 47 50 52 51 48 40 41 53 50 31 36 38 35 31 28 27 28 24 21 17 17 17 17 17 35 33 29 27 27 22 17 17 23 25 23 20 18 22 27 25 22 19
43 45 45 49 51 51 47 38 38 51 50 34 35 37 32 29 30 25 27 25 22 20 17 19 19 22 34 34 32 32 33 23 18 21 19 25 24 23 19 19 25 24 21 15
41 44 44 46 51 51 49 41 38 44 42 41 36 37 32 28 26 25 27 24 19 24 23 21 25 25 34 35 36 31 30 24 22 21 21 24 25 21 19 18 21 21 23 17
42 44 44 46 50 51 47 39 36 42 38 39 37 38 34 28 25 27 28 27 22 25 24 24 25 26 33 31 36 31 31 30 30 30 27 25 23 22 21 18 15 16 15 15
43 43 44 45 49 50 45 44 45 40 39 37 37 38 35 31 27 27 27 28 26 24 30 33 37 37 34 31 36 33 33 34 30 24 25 23 16 22 22 18 18 16 15 19
44 43 45 47 49 50 44 45 44 40 37 36 37 37 36 28 27 31 31 31 29 38 38 38 37 34 34 35 36 35 39 36 31 25 24 11 12 18 16 15 15 13 11 16
44 45 46 45 46 50 48 48 49 44 39 37 34 35 32 28 27 31 33 41 41 40 38 37 35 35 31 31 30 30 34 33 31 27 21 18 18 16 17 17 17 19 19 19
44 45 44 43 45 45 49 50 53 52 40 39 35 31 32 31 38 41 41 41 42 40 42 37 29 28 26 28 31 28 30 36 30 26 25 20 24 23 25 23 16 24 24 24
44 46 45 44 45 45 46 49 52 54 43 39 36 31 31 32 40 40 41 42 41 43 44 38 31 29 28 29 31 33 33 33 27 30 29 30 23 24 26 18 28 29 30 28
45 44 44 45 44 46 48 47 50 52 47 36 37 33 29 37 41 42 42 40 40 42 38 37 37 37 33 28 27 32 30 34 32 34 33 24 22 26 24 34 31 30 30 30
44 45 45 45 48 49 49 46 49 52 53 48 51 49 48 43 39 44 43 38 41 43 37 39 41 38 37 34 29 26 28 31 32 31 31 30 24 25 26 29 29 30 31 32
46 46 47 47 48 49 49 48 50 56 49 47 44 45 49 50 51 52 42 42 40 41 45 48 47 38 42 33 36 31 30 31 31 29 22 24 25 27 27 31 34 35 35 36
47 47 47 48 49 49 50 48 50 54 49 45 48 49 48 48 49 49 50 46 48 48 49 48 40 40 41 40 36 35 33 30 28 28 29 28 29 35 38 39 39 40 40 39
47 47 48 48 49 49 50 51 52 54 43 45 46 47 47 47 48 47 48 48 46 46 45 33 41 42 42 43 39 35 33 29 31 33 36 36 37 38 39 37 36 36 35 33
48 48 48 48 49 49 49 49 51 53 49 48 44 47 46 45 45 45 45 46 45 43 47 46 41 41 42 37 33 33 37 37 37 36 39 40 38 36 36 36 35 36 36 36
47 48 48 49 49 50 49 44 49 49 54 48 44 43 46 47 47 47 46 46 46 44 45 47 43 40 43 41 35 37 36 36 38 37 39 37 37 36 37 36 35 35 34 33
47 48 48 49 49 49 49 48 47 49 46 48 43 42 44 47 47 46 48 47 46 45 44 44 44 42 45 39 37 36 36 37 37 35 36 36 36 36 36 35 34 32 32 31
48 48 49 49 48 48 49 45 48 53 47 42 44 39 40 45 44 45 46 46 42 43 42 42 42 39 39 38 36 35 36 38 36 35 36 36 35 34 33 32 30 30 30 31
48 49 43 44 50 47 46 47 45 45 46 45 40 44 40 43 42 40 41 43 40 37 39 41 39 37 35 35 36 36 36 37 36 35 34 34 33 32 31 31 32 31 27 25
49 46 45 48 47 46 44 40 39 40 39 40 39 41 41 44 40 38 42 38 39 35 37 36 35 34 34 35 35 36 36 37 36 36 35 34 32 31 32 28 27 28 28 29
48 47 48 47 45 41 35 36 38 40 37 37 37 39 40 42 43 38 39 35 36 32 37 35 32 34 34 34 35 34 34 34 33 32 31 31 30 28 29 29 30 31 30 30
47 42 39 40 39 35 34 31 34 33 35 37 38 36 40 40 40 37 36 33 33 36 33 30 33 33 34 35 34 32 33 33 31 28 28 29 31 32 30 30 31 31 30 29
40 37 33 34 32 31 30 31 32 33 34 38 38 37 37 38 36 36 32 33 34 31 29 29 32 33 34 34 32 31 29 29 28 28 30 31 30 29 29 29 29 27 26 26
35 34 28 28 30 32 32 33 33 34 37 38 39 39 38 35 34 34 33 31 29 30 30 31 33 34 35 33 31 29 30 31 30 31 31 30 30 28 27 27 27 26 26 25
33 31 30 32 31 30 31 32 32 34 35 39 39 35 33 32 34 31 32 31 29 30 31 32 33 34 35 34 29 30 30 32 31 31 31 30 29 28 26 24 24 25 23 22
32 29 31 32 31 29 30 32 33 36 35 32 34 31 28 33 31 30 31 27 30 31 32 33 33 33 35 32 33 32 31 31 31 30 29 28 27 26 23 19 17 18 21 18

GFSNW_sfc_30mbdewp_030.txt.gz
Dewpoint
41 41 42 43 43 45 46 45 39 49 51 37 39 38 37 36 36 38 37 33 29 19 17 17 15 15 15 28 32 25 32 30 25 24 27 31 28 24 26 21 15 24 22 19
41 40 40 42 43 44 44 41 42 49 47 33 32 36 37 37 34 36 36 32 30 26 24 20 24 25 34 35 31 27 31 26 22 22 24 26 26 24 25 28 25 20 18 19
41 40 40 42 40 44 44 41 37 44 44 38 29 33 36 36 35 37 38 37 35 30 25 28 27 31 34 36 33 34 30 25 19 17 16 22 24 27 28 26 22 22 23 21
40 40 40 42 46 44 44 42 36 39 36 38 31 31 33 33 30 36 36 33 34 33 24 26 26 34 34 36 32 32 27 23 24 23 28 29 24 26 27 24 24 21 20 24
40 40 41 40 44 45 43 39 38 40 39 37 35 31 30 29 28 30 30 33 33 31 25 23 29 32 32 27 33 29 32 23 30 24 28 25 23 22 24 24 23 24 23 21
40 42 42 42 44 46 41 42 45 40 38 38 36 32 30 27 28 33 32 32 31 31 28 32 32 34 33 33 30 31 30 29 26 22 24 20 20 20 19 22 24 23 19 23
40 39 42 42 42 44 43 41 45 39 36 39 37 34 31 29 31 28 34 32 33 35 40 37 35 35 38 38 38 37 31 30 27 23 21 17 20 22 22 22 22 23 24 25
41 41 42 43 43 43 45 46 44 43 35 39 39 36 32 31 33 37 33 38 36 41 38 33 32 31 32 29 37 38 36 32 29 21 18 22 20 21 19 18 24 26 26 28
41 41 42 42 43 44 45 45 46 43 42 38 41 37 33 30 36 33 40 44 46 44 37 30 26 26 28 28 28 33 35 31 26 30 18 15 18 25 25 25 23 30 29 30
40 41 42 42 41 45 45 44 46 43 40 44 40 37 33 32 40 35 43 42 42 43 34 30 26 26 29 26 26 26 27 30 26 24 19 18 25 27 25 11 15 31 31 31
41 41 42 42 43 45 43 45 47 43 42 44 48 36 33 37 40 38 43 42 42 40 32 30 32 27 31 31 31 29 25 26 28 29 24 20 31 26 20 24 33 31 31 32
41 41 42 43 45 45 43 41 46 46 42 44 47 47 48 36 42 42 44 39 40 40 34 38 37 34 33 31 30 34 25 26 25 28 24 31 29 29 34 32 33 36 38 40
42 42 43 45 44 45 42 42 45 44 42 43 45 44 48 50 45 45 40 44 44 44 43 40 38 31 34 28 28 31 31 36 32 32 33 33 37 40 40 41 38 36 37 39
43 43 45 45 44 45 43 43 45 47 45 41 44 51 48 50 48 45 43 42 49 50 45 39 36 30 37 30 30 29 32 33 31 33 38 39 39 38 37 34 34 33 33 33
42 44 45 45 45 45 44 45 46 47 46 40 41 48 49 50 51 46 44 47 47 41 34 31 31 39 40 37 35 33 33 31 28 27 35 35 37 37 36 35 35 35 34 34
45 45 45 45 45 45 44 41 47 49 49 41 35 47 48 49 52 50 48 47 47 45 39 42 41 43 35 31 31 35 38 38 35 37 39 37 37 37 37 36 35 35 34 34
45 45 45 45 45 46 41 40 47 49 48 41 39 40 47 50 48 49 49 49 48 46 45 42 39 40 38 30 29 37 38 39 38 37 37 36 36 34 34 34 34 34 33 33
45 45 46 46 47 47 45 48 51 51 46 46 40 39 43 46 43 44 47 45 44 44 43 43 39 42 38 31 37 38 37 38 38 38 38 36 35 34 33 32 32 31 31 30
46 46 47 46 46 44 44 49 51 50 47 42 40 38 39 44 42 42 43 41 39 41 41 42 38 37 37 37 36 36 36 36 36 35 35 34 33 32 31 30 30 29 28 28
47 45 44 39 45 50 50 47 45 45 45 40 39 41 39 42 39 40 39 39 38 36 38 39 35 34 35 36 37 38 37 36 35 34 33 32 30 30 30 31 29 28 27 27
45 44 43 48 50 44 43 39 37 37 35 37 39 40 40 43 38 38 38 37 36 33 36 36 34 32 34 37 37 38 37 36 35 34 33 32 31 30 29 28 28 27 28 28
48 47 48 47 44 38 34 33 35 35 33 36 37 39 41 41 41 38 37 34 34 31 37 33 32 34 36 37 37 37 36 35 34 34 33 31 30 29 27 27 27 28 28 28
45 40 38 37 34 32 29 30 32 32 34 36 37 37 39 38 38 36 35 32 31 34 31 30 30 34 35 35 33 32 31 32 32 31 31 30 30 29 28 28 28 27 26 25
34 33 30 31 29 29 29 31 31 32 33 36 37 36 36 36 35 35 32 33 33 29 27 27 31 34 34 32 31 31 31 31 30 29 29 29 29 28 29 26 25 24 23 22
31 31 26 27 30 31 31 32 33 33 35 36 37 36 35 34 33 32 32 30 27 29 28 30 33 34 33 31 30 30 29 29 28 28 27 27 27 26 25 25 25 24 22 18
30 30 29 30 29 29 31 31 32 35 35 36 36 33 31 30 32 29 28 27 26 27 29 32 34 31 30 30 30 30 29 28 28 28 27 26 24 24 24 23 22 22 19 16
29 28 31 31 30 29 30 31 32 35 34 32 33 29 28 32 28 25 27 24 27 29 30 33 33 31 32 32 31 30 30 30 29 28 26 25 24 24 22 19 18 19 19 16

GFSNW_sfc_30mbdewp_033.txt.gz
Dewpoint
44 45 44 43 43 43 45 40 35 49 50 41 37 33 35 35 34 37 38 37 34 27 20 17 17 16 15 21 29 23 29 25 20 22 28 30 27 24 22 18 17 24 22 19
43 45 43 42 41 43 42 36 39 49 47 35 34 34 34 34 31 34 34 35 34 30 22 17 20 19 31 32 28 26 31 26 20 21 23 25 25 26 28 27 24 20 17 17
45 45 43 41 42 43 45 38 34 42 44 39 35 33 34 36 36 34 37 37 37 33 27 27 24 27 34 36 33 32 29 25 21 18 19 22 23 26 26 26 22 21 21 20
45 44 42 42 42 40 42 38 33 38 36 36 37 33 33 33 32 36 34 34 36 35 30 27 28 33 34 34 33 32 28 22 21 21 20 28 25 25 28 25 25 22 22 24
43 42 42 41 40 43 40 35 37 39 38 36 35 34 31 32 33 35 32 28 30 30 31 28 25 31 32 29 32 30 30 24 27 24 27 25 24 24 23 24 24 25 24 23
43 42 41 40 40 41 37 39 42 40 36 36 34 32 32 31 33 34 32 33 32 34 34 33 30 34 32 29 29 29 28 25 24 19 25 21 20 22 22 22 24 24 20 21
42 41 40 41 41 41 41 38 40 40 34 35 33 32 32 31 31 28 30 28 31 33 38 37 36 35 37 38 37 33 28 26 26 21 21 18 23 24 23 22 23 23 24 25
41 40 40 41 41 40 40 42 40 40 36 34 35 34 33 31 31 30 27 33 28 38 37 33 33 33 33 32 36 37 33 29 25 21 21 21 21 22 21 20 22 25 27 30
40 40 41 41 41 39 40 42 42 40 38 37 36 35 34 32 30 30 34 31 45 40 35 30 29 29 30 29 32 34 31 31 27 24 21 20 22 23 25 26 20 28 29 30
39 40 41 42 42 39 42 41 46 40 36 41 40 37 35 34 31 30 37 42 42 42 34 30 26 25 30 27 28 29 31 29 28 26 23 21 21 26 23 17 17 29 31 31
40 40 40 41 42 44 42 40 47 41 37 40 45 45 38 35 33 31 36 41 42 38 35 31 28 28 29 27 29 27 29 30 28 26 22 22 28 28 17 21 32 31 32 32
40 41 42 42 42 43 42 42 47 46 40 40 43 43 44 44 36 37 44 35 40 40 36 35 34 29 32 30 25 34 24 26 26 28 26 29 31 26 30 33 31 32 33 37
41 41 42 42 42 43 44 43 45 43 39 38 41 41 44 47 47 46 40 43 44 41 44 39 36 30 32 29 29 32 32 34 26 28 32 33 36 38 37 37 36 39 40 40
41 41 42 42 42 44 45 42 44 41 41 37 40 50 48 50 50 47 44 43 49 46 44 39 34 29 35 29 29 29 31 34 33 34 38 38 37 37 35 34 35 35 34 32
42 42 42 42 43 45 43 43 44 46 39 36 38 44 48 51 51 46 45 47 46 41 37 33 30 37 36 35 33 30 34 32 30 29 37 32 36 36 35 34 34 34 32 32
41 42 42 45 45 44 41 38 42 46 46 40 34 42 45 50 51 47 43 45 45 40 36 39 41 43 35 31 30 33 35 35 33 31 39 37 37 36 36 35 35 34 32 30
43 44 45 44 43 41 38 35 42 45 46 40 35 35 42 49 49 48 49 48 47 45 43 39 39 40 34 30 25 33 38 39 38 37 36 35 35 35 35 35 34 33 32 32
43 43 44 44 43 42 42 48 46 45 41 43 37 35 39 46 43 44 47 44 44 43 43 41 39 40 35 29 36 38 38 37 37 37 37 36 35 34 33 33 32 31 31 31
45 45 45 44 41 40 44 50 49 50 45 40 38 34 34 44 40 41 42 42 41 42 41 41 39 37 34 36 37 37 37 37 35 34 34 33 32 31 31 31 30 29 28 29
45 44 39 37 42 49 46 44 41 43 44 41 38 40 38 41 38 38 39 39 38 37 38 39 36 35 35 36 37 37 36 35 35 33 32 32 30 30 30 29 28 27 27 28
42 39 40 46 47 42 40 38 37 37 36 37 38 39 39 42 38 37 37 36 34 33 36 37 33 33 34 37 37 37 37 36 37 35 34 32 31 30 29 28 27 27 27 27
43 45 46 45 40 36 32 32 35 34 33 36 37 39 41 41 40 37 36 35 33 32 36 33 32 33 36 36 37 37 36 35 34 33 32 31 30 30 29 27 27 27 27 26
44 40 37 36 33 30 29 29 31 31 33 35 37 37 38 38 37 34 33 31 31 34 33 31 30 35 36 34 33 34 34 33 32 31 31 29 28 28 27 27 28 27 26 23
35 34 29 29 27 27 28 30 31 32 33 35 36 35 35 35 34 34 31 32 32 29 26 26 31 34 33 33 33 32 32 31 31 29 29 28 27 27 27 27 26 24 22 23
32 31 26 27 30 31 31 32 32 33 35 36 36 35 34 33 32 32 32 30 27 28 26 29 32 32 32 32 31 30 29 29 29 28 28 27 26 24 24 25 24 22 20 19
30 30 28 30 29 29 30 31 31 34 34 36 35 32 31 30 31 29 26 27 24 25 28 31 32 31 31 31 30 29 29 29 29 29 28 27 26 23 24 24 22 18 16 15
28 28 31 30 30 29 30 30 31 34 34 31 31 27 26 31 25 23 25 22 25 28 30 32 32 31 30 31 30 30 29 28 27 27 26 25 24 23 21 21 21 17 17 16

GFSNW_sfc_30mbdewp_039.txt.gz
Dewpoint
46 46 45 44 44 44 45 39 31 41 45 37 38 34 33 34 33 37 36 37 37 32 24 21 20 20 19 22 24 23 26 22 17 19 28 28 26 25 25 21 20 23 21 18
46 47 45 44 44 44 42 35 33 42 41 31 31 34 32 34 32 34 35 34 35 35 27 20 21 21 22 25 23 22 27 21 15 16 23 26 27 26 26 26 25 22 20 19
47 47 46 44 43 44 41 37 30 37 38 33 28 32 31 31 35 34 35 35 36 34 31 27 21 22 27 28 25 28 26 24 17 14 16 22 24 26 28 26 24 24 23 23
45 47 46 44 43 44 41 38 31 36 30 32 29 30 29 30 30 33 34 34 34 33 27 28 25 26 33 34 35 30 25 19 23 21 20 22 22 24 27 25 25 22 22 23
45 47 46 44 43 44 39 34 32 33 34 31 31 31 30 29 31 30 31 31 33 32 33 28 27 33 33 30 34 30 29 21 23 21 25 24 23 25 27 27 26 26 25 25
44 46 45 44 44 43 38 39 38 31 32 32 29 28 30 30 33 32 31 33 33 33 30 34 35 33 32 33 32 31 28 25 23 19 25 24 22 24 25 25 27 27 23 25
43 44 45 44 44 42 39 37 38 33 26 33 29 28 30 30 32 29 31 33 30 31 36 37 37 37 37 36 35 33 28 27 25 20 23 19 23 25 25 25 25 25 25 25
42 44 44 44 44 43 38 38 37 35 27 31 31 31 29 33 32 33 32 35 35 36 36 30 29 33 32 34 35 33 30 27 23 21 21 22 21 22 22 20 18 22 23 25
42 46 44 44 44 43 38 38 40 38 29 32 33 32 30 30 32 32 34 36 38 36 35 33 26 26 30 30 32 32 30 29 25 22 19 18 22 23 26 23 19 23 25 28
42 45 44 43 44 43 38 39 40 39 32 36 38 32 32 32 31 32 33 33 35 34 30 28 28 28 32 29 29 30 28 27 23 22 21 23 26 24 25 19 21 25 29 32
45 44 44 43 43 41 36 38 40 37 36 36 39 38 37 33 32 30 33 31 33 36 29 29 28 28 31 31 32 31 28 26 25 25 23 21 27 25 22 25 26 28 33 35
44 44 43 43 43 41 37 35 42 41 35 37 42 43 42 41 34 32 36 29 32 34 33 33 32 29 30 29 28 31 29 29 26 27 27 33 28 27 28 27 26 31 33 35
44 44 43 44 44 42 37 37 39 37 34 32 37 37 40 44 41 40 33 36 39 38 40 34 33 31 32 28 28 30 32 32 30 29 30 30 30 31 34 32 31 33 35 36
44 42 42 42 41 42 38 36 39 34 36 30 33 44 42 47 46 43 41 41 43 44 42 36 33 32 35 30 32 30 31 32 29 29 29 35 35 36 34 35 37 36 36 35
44 43 43 43 42 40 38 38 39 38 36 33 34 39 40 44 43 46 44 42 43 40 37 38 35 36 34 34 34 31 33 30 28 27 28 27 27 35 36 35 35 35 34 34
42 42 42 41 41 40 37 32 38 42 41 36 32 39 39 44 48 48 46 44 42 42 40 37 38 41 36 32 30 32 34 36 36 28 34 34 35 36 36 35 35 35 34 33
39 40 41 41 41 39 36 35 38 40 44 36 32 33 39 43 48 48 47 47 44 41 40 37 39 41 39 33 29 30 33 36 37 37 35 34 35 34 35 34 33 33 32 32
41 41 41 41 41 40 39 41 45 44 40 38 31 32 37 45 42 42 45 43 44 43 40 39 39 39 35 33 32 34 37 37 37 37 37 36 35 34 32 32 32 31 31 31
41 42 42 40 39 37 36 45 45 44 38 31 31 31 33 43 40 40 40 41 39 41 39 39 39 36 36 35 34 36 37 36 36 35 35 35 34 32 31 31 31 31 30 30
41 40 37 32 37 43 43 41 38 38 38 40 35 38 36 40 36 38 37 37 37 36 38 38 38 36 36 36 37 38 37 36 35 34 33 33 32 31 31 30 31 30 30 29
39 37 35 39 45 41 37 32 32 34 34 36 35 37 38 41 35 36 37 35 35 34 36 37 35 35 34 37 37 37 36 35 36 35 34 34 33 31 30 30 30 30 30 29
39 40 43 43 39 35 32 30 31 31 32 35 34 36 39 39 39 35 35 34 33 32 36 35 32 32 35 36 36 36 36 35 34 33 32 32 31 30 30 29 29 28 27 27
43 38 35 34 32 30 28 27 29 30 32 34 36 35 38 38 36 33 33 31 31 35 33 28 29 32 33 34 34 34 34 34 33 32 31 30 29 29 29 28 28 27 26 26
33 32 27 27 25 26 27 27 29 31 32 32 35 34 35 35 33 32 31 31 32 28 25 24 28 30 31 32 32 31 31 31 30 29 29 28 28 27 27 27 27 26 24 25
31 28 24 26 29 29 30 30 31 31 33 33 34 34 34 32 31 30 31 28 22 22 21 25 29 30 30 30 30 29 29 28 27 27 27 26 26 25 25 26 26 25 24 23
29 23 22 25 24 22 24 24 26 31 31 34 33 31 28 26 24 21 18 20 16 19 22 28 30 29 29 28 29 29 28 28 27 27 26 26 24 23 22 23 22 22 20 19
27 23 24 22 22 21 22 24 25 29 32 27 24 18 18 23 18 15 17 14 18 19 23 28 29 28 28 28 28 28 28 27 26 25 25 24 23 23 21 19 19 19 19 19

GFSNW_sfc_30mbdewp_042.txt.gz
Dewpoint
47 47 47 46 46 45 44 38 32 41 43 34 34 32 30 25 25 32 33 34 35 29 26 21 20 18 19 23 22 23 23 21 21 20 26 27 22 21 23 20 18 23 24 18
47 47 47 47 46 45 42 34 36 42 39 27 30 30 30 26 27 27 33 33 34 35 31 24 21 20 23 24 24 20 26 21 19 19 23 26 22 23 22 25 27 22 22 20
47 47 47 47 46 45 41 35 30 38 38 29 27 27 27 26 28 25 32 32 35 35 33 30 25 22 27 28 24 27 28 21 20 16 16 17 22 22 23 24 24 21 23 19
44 47 47 47 46 45 40 37 31 35 30 31 25 27 24 24 26 29 30 33 33 33 31 30 28 25 30 31 32 26 26 20 21 18 15 15 15 15 23 23 24 20 21 19
43 44 47 47 46 46 39 33 33 34 28 29 27 27 27 22 25 26 25 29 32 33 30 28 29 32 32 26 34 28 27 19 24 21 21 20 17 18 18 22 20 22 22 19
43 43 44 47 46 45 38 39 35 30 27 27 27 28 26 26 26 25 24 26 25 30 32 35 35 35 34 31 34 32 30 25 23 17 23 22 22 25 21 22 26 24 20 21
43 43 44 45 46 44 40 36 36 32 25 27 27 26 24 23 25 27 26 25 28 30 38 34 34 34 37 35 30 33 33 30 27 21 25 20 18 26 23 23 23 24 24 23
43 42 43 44 46 44 40 37 36 30 28 27 27 26 24 24 27 27 27 32 31 36 31 27 25 23 25 32 36 36 34 31 28 27 23 19 22 24 24 24 21 22 22 22
43 42 43 43 45 44 39 39 37 36 29 25 25 29 26 26 27 31 29 29 40 37 37 32 25 13 18 26 32 33 33 34 31 27 22 20 19 23 26 25 21 22 23 24
43 42 42 44 45 43 39 39 41 36 29 25 28 30 29 27 27 29 30 33 36 36 34 34 27 22 20 20 31 31 31 31 30 28 27 25 28 26 26 21 22 26 24 26
42 42 42 45 44 43 39 39 42 37 33 34 37 38 32 30 28 29 31 31 35 35 32 29 28 31 31 22 28 32 30 29 29 30 29 25 28 26 24 27 33 30 31 30
42 41 44 44 44 44 39 37 41 41 37 38 40 41 42 42 30 30 35 28 30 33 30 32 30 34 35 30 27 34 31 31 30 29 28 31 30 27 29 33 29 32 32 33
42 44 44 44 45 43 39 40 40 37 35 35 35 34 40 45 43 42 31 31 28 33 34 37 37 34 37 32 31 29 34 35 32 32 28 32 33 31 32 31 31 31 33 35
44 44 44 44 45 41 39 38 39 34 32 28 28 39 41 43 43 43 42 38 37 41 38 36 36 34 35 33 29 32 30 33 33 32 32 34 35 34 32 33 34 34 33 35
44 44 44 45 42 39 41 40 37 33 27 30 27 31 35 36 36 38 44 40 39 36 39 39 34 33 35 38 37 35 33 32 32 31 32 32 30 34 35 34 35 35 35 36
43 45 45 43 41 40 38 34 37 37 34 32 31 39 39 40 40 44 43 41 38 37 36 37 37 41 38 36 28 28 31 34 34 31 36 36 37 36 36 36 35 36 35 36
44 43 42 41 40 39 34 31 36 39 38 29 28 32 38 41 42 45 44 43 40 37 38 38 36 41 39 39 34 29 32 34 35 38 36 34 35 34 37 37 37 37 36 35
43 43 42 41 40 37 37 43 43 43 33 33 31 31 36 43 42 41 45 43 43 40 38 40 38 40 40 36 35 36 35 36 38 38 37 37 37 36 36 35 35 34 34 33
41 42 40 38 36 35 38 43 42 41 40 33 33 30 32 43 40 41 41 43 39 43 41 39 38 38 34 35 36 36 38 38 38 37 36 36 35 34 33 34 34 33 32 33
41 37 36 33 38 42 45 41 36 38 37 37 33 35 31 37 38 38 38 38 37 35 39 42 39 36 38 37 38 38 38 37 37 36 35 35 33 33 33 33 33 33 32 32
35 35 34 38 41 38 36 32 32 33 31 35 36 35 32 40 36 37 39 35 34 33 36 38 36 35 35 37 38 37 37 37 37 37 36 36 35 34 33 32 33 32 32 31
41 40 40 41 37 34 31 30 31 31 29 36 34 35 35 37 41 38 37 35 34 32 37 37 32 31 34 36 37 37 37 36 35 35 35 35 34 33 33 32 31 30 29 29
42 37 35 35 33 29 27 27 29 30 32 34 36 35 38 39 38 35 34 32 31 35 32 26 25 30 32 32 33 33 34 34 33 32 32 32 32 31 30 28 28 28 28 28
34 32 27 29 26 27 28 27 29 31 31 33 35 34 35 35 33 32 31 31 32 28 24 22 26 29 30 30 31 30 29 29 29 28 28 27 27 27 28 28 28 27 26 27
29 28 24 25 27 26 27 28 30 31 31 32 34 33 33 31 30 29 30 27 21 21 19 22 24 29 29 29 29 28 27 27 27 27 26 26 26 26 26 27 27 26 25 24
25 20 20 22 23 21 22 23 24 28 29 32 32 30 27 24 24 21 18 19 14 16 19 22 27 28 28 28 28 27 27 27 26 26 26 25 24 24 23 24 24 24 23 22
24 21 22 20 21 19 21 23 24 28 30 27 23 19 19 23 17 15 16 14 16 19 20 22 26 26 27 27 27 27 27 26 26 25 25 24 25 25 23 20 22 22 22 21